Regional Weather Roundup
Issued by NWS San Diego, CA

Home | Current Version | Previous Version | Text Only | Print | Product List | Glossary On
Versions: 1 2 3 4 5 6 7 8 9 10 11 12 13 14 15 16 17 18 19 20 21 22 23 24 25 26 27 28 29 30 31 32 33 34 35 36 37 38 39 40 41 42 43 44 45 46 47 48 49 50
000
ASUS46 KSGX 011311
RWRSGX

SAN DIEGO HOURLY WEATHER ROUNDUP
NATIONAL WEATHER SERVICE SAN DIEGO CA
600 AM PDT SAT AUG 01 2015

NOTE: "FAIR" INDICATES FEW OR NO CLOUDS BELOW 12,000 FEET WITH NO
SIGNIFICANT WEATHER AND/OR OBSTRUCTIONS TO VISIBILITY.

CAZ042-043-060-061-PZZ750-775-011400-

GREATER SAN DIEGO AREA

CITY           SKY/WX    TMP DP  RH WIND       PRES   REMARKS
LINDBERGH FLD  CLOUDY    70  63  78 W3        29.98R
POINT LOMA       N/A     67  62  84 NW3         N/A
NATIONAL CITY    N/A     70  65  84 CALM      29.98R
CHULA VISTA      N/A     69  65  89 CALM      29.90R
IMPERIAL BEACH CLOUDY   N/A N/A N/A W6        29.98R
BROWN FIELD    CLOUDY    67  64  90 CALM      29.98R
MIRAMAR MCAS   CLOUDY    70  62  76 SW3       29.98R
MONTGOMERY FLD CLOUDY    69  63  81 N3        29.98R

$$

NORTH SAN DIEGO COUNTY

CITY           SKY/WX    TMP DP  RH WIND       PRES   REMARKS
CAMP PENDLETON CLOUDY    70  64  81 CALM      29.96R
OCEANSIDE AP   CLOUDY    70  65  84 W3        29.96R
OCEANSIDE HBR    N/A     69  67  92 SW3       29.99R
VISTA            N/A     68  63  84 CALM      29.94R
CARLSBAD       CLOUDY    69  65  86 W3        29.96R
DEL MAR          N/A     68  65  89 CALM      29.99R
FALLBROOK        N/A     67  67 100 CALM      29.96R
ESCONDIDO        N/A     67  65  91 CALM      29.98R
POWAY            N/A     66  63  89 CALM      29.97R

$$

EAST SAN DIEGO COUNTY

CITY           SKY/WX    TMP DP  RH WIND       PRES   REMARKS
RAMONA         FOG       63  61  93 NE3       29.99S VSB 1/4
SANTEE LAKES     N/A     67  64  92 CALM      29.96R
LA MESA          N/A     66  64  92 CALM      29.90R
JAMUL            N/A     64  63  96 CALM      29.95R
DESCANSO N       N/A     61  40  45 E5        29.82S
CAMPO            N/A     58  42  55 NE7       30.01R

$$

ORANGE COUNTY AND THE LOS ANGELES BASIN

CITY           SKY/WX    TMP DP  RH WIND       PRES   REMARKS
JOHN WAYNE AP  CLOUDY    69  65  86 CALM      29.96R
LAKE FOREST FR   N/A     65  62  88 CALM      29.86S
SANTA ANA        N/A     71  66  84 CALM      29.92R
HUNTINGTON BCH   N/A     67  65  92 CALM      29.99R
LOS ALAMITOS   CLOUDY    69  66  91 E2        29.97R
FULLERTON      CLOUDY    71  65  81 S3        29.95S
LONG BEACH     CLOUDY    71  64  78 CALM      29.96R
L.A. AP        CLOUDY    67  64  90 VRB3      29.97R
L.A. DOWNTOWN  CLOUDY    68  63  84 CALM      29.96S

$$

THE INLAND EMPIRE

CITY           SKY/WX    TMP DP  RH WIND       PRES   REMARKS
CORONA         CLEAR     66  65  97 CALM      29.98R FOG
CHINO          MOCLDY    67  64  90 SW3       29.99R FOG
ONTARIO        PTCLDY    67  63  87 SW5       29.98R FOG
RIVERSIDE AP   CLEAR     68  64  87 W3        29.98R
MORENO VALLEY    N/A     67  65  96 CALM      29.95S
MARCH ARB      CLEAR     65  65 100 W3        29.99R
HORSETHIEF CYN   N/A     65  59  80 W5        29.97R
PERRIS           N/A     67  64  87 CALM      30.00R
MENIFEE          N/A     67  64  90 CALM      30.04R
HEMET EAST       N/A     67  45  45 CALM      29.95S
FRENCH VALLEY  CLOUDY    63  61  94 CALM      30.00R VSB 3/4
TEMECULA         N/A     65  63  96 CALM      29.95R

$$

SAN BERNARDINO AND RIVERSIDE COUNTY MOUNTAINS

CITY           SKY/WX    TMP DP  RH WIND       PRES   REMARKS
BIG BEAR AP    CLEAR     45  34  65 CALM      30.31R
ANGELUS OAKS     N/A     61  41  47 CALM      29.85R
PINE COVE        N/A     65  33  29 CALM      29.92S

$$

SOUTHERN DESERT INCLUDING THE COACHELLA VALLEY

CITY           SKY/WX    TMP DP  RH WIND       PRES   REMARKS
PALM SPRINGS   CLEAR     83  60  45 NW5       29.86R
THOUSAND PALMS   N/A     87  54  31 W9        29.81R
THERMAL        CLEAR     77  62  59 CALM      29.80R
BLYTHE         PTCLDY    86  61  42 NE5       29.86R
IMPERIAL AP    PTCLDY    80  53  39 E3        29.81R
EL CENTRO NAS  PTCLDY    77  51  40 NE3       29.82R
YUMA AZ        PTCLDY    91  61  36 E9        29.83R
MEXICALI       PTCLDY    82  61  47 NE5       29.83

$$

UPPER DESERT

CITY           SKY/WX    TMP DP  RH WIND       PRES   REMARKS
VICTORVILLE AP CLEAR     66  52  59 CALM      30.05R
HESPERIA         N/A     67  55  66 CALM      29.99R
APPLE VALLEY     N/A     65  53  67 CALM      30.09R
PALMDALE       CLEAR     71  46  40 SE5       30.03R
LANCASTER      CLEAR     67  50  54 NW8       30.02R
EDWARDS AFB    MOCLDY    72  50  46 S8        29.99R
DAGGETT        CLEAR     75  53  46 W10       29.97R
29 PALMS N     CLEAR     78  51  38 NE5       30.03R
NEEDLES        MOCLDY    92  58  31 SW10      29.89R

$$

REGIONAL REPORTS

CITY           SKY/WX    TMP DP  RH WIND       PRES   REMARKS
SANTA BARBARA  CLOUDY    66  63  90 NE8       29.95R
SANDBERG       CLEAR     69  49  48 NW13      30.16R
LAS VEGAS NV   CLOUDY    88  55  32 SW3       29.90R
PHOENIX AZ     MOCLDY    83  69  62 W7        29.90R
TIJUANA        CLOUDY    66  61  82 CALM      30.00
ENSENADA NW      N/A     69  32  25 NW3       29.94R

$$

OFFSHORE ISLANDS

CITY           SKY/WX    TMP DP  RH WIND       PRES   REMARKS
CATALINA ARPT  FOG       59  59 100 SW5       30.01R VSB 1/4
SAN NICOLAS IS CLOUDY   N/A N/A N/A W12       29.98R

$$

MARINE AND OFFSHORE BUOY REPORTS

STATION/POSITION SKY/WX   TEMP    WIND        PRES    SWELL
                          AIR SEA DIR/SP/G            HT/PER/DIR
                          (F)     (DEG/KT/KT) (MB)    (FT/S/D)
TANNER BANKS               66 68  310/ 12/ 14 1015.1S   3/200/13
S CLEMENTE BASIN           66 70  300/ 10/ 12 1014.8R   3/210/15
SAN NICOLAS IS.               66                N/A     3/200/13
SO. S. ROSA ISLA           64 67  320/ 17/ 21 1013.8R   2/13
W. S. BARBARA CH           63 65  320/ 19/ 23 1013.6R   3/220/14
M. S. BARBARA CH           66 69  200/ 10/ 12 1014.8R
S. MONICA BASIN            68 74   30/  2/  4 1014.6R   3/180/14
S PEDRO CHANNEL               71                N/A     2/210/14
DANA POINT                    71                N/A     2/210/14
OCEANSIDE OFFSHR              72                N/A     2/230/13
TORREY PINES OTR              73                N/A     2/220/14
LA JOLLA 1                 70 71  230/  1/  4 1014.2F
MISSION BAY BUOY              71                N/A     2/210/14
SAN DIEGO BAY                 75              1014.9F
POINT LOMA SOUTH              72                N/A     2/220/14

$$



USA.gov is the U.S. government's official web portal to all federal, state and local government web resources and services.